Orbital Elements at Epoch 2459200.5 (2020-Dec-17.0) TDB
Reference: JPL 22 (heliocentric ecliptic J2000)
Element | Value | Uncertainty (1-sigma) | Units |
e | .08220043493058136 | 4.3599e-08 | |
a | 3.023920021798863 | 1.8638e-08 | au |
q | 2.775352480811703 | 1.415e-07 | au |
i | 1.502774112386954 | 3.9196e-06 | deg |
node | 100.5903933304515 | 0.00018889 | deg |
peri | 237.6743669538934 | 0.0001917 | deg |
M | 296.6471828243342 | 3.6019e-05 | deg |
tp | 2459538.500473581864 (2021-Nov-20.00047358) | 0.00019345 | TDB |
period | 1920.674974122681 5.26 | 1.7757e-05 4.862e-08 | d yr |
n | .1874341077226976 | 1.7329e-09 | deg/d |
Q | 3.272487562786022 | 2.017e-08 | au |
|
| | Orbit Determination Parameters
Additional Information
|